• In Portugal
  • List of Countries
  • For 7 days
  • Water Temperature
  • Satellite Maps
  • Weather Map
  • Weather Widgets
  • user-avatar
    Login

    Hourly Weather San Juan

    Today, 18 December, Monday

    Time Temperature Precipitation Wind Pressure Humidity
    00:00 +23°C° 0 mm 1 mps 708 mmHg 23%
    01:00 +23°C° 0 mm 1 mps 707 mmHg 24%
    02:00 +23°C° 0 mm 1 mps 707 mmHg 24%
    03:00 +23°C° 0 mm 2 mps 706 mmHg 25%
    04:00 +21°C° 0 mm 2 mps 706 mmHg 26%
    05:00 +24°C° 0 mm 3 mps 706 mmHg 24%
    06:00 +25°C° 0 mm 3 mps 706 mmHg 22%
    07:00 +26°C° 0 mm 4 mps 706 mmHg 20%
    08:00 +28°C° 0 mm 4 mps 706 mmHg 18%
    09:00 +30°C° 0 mm 4 mps 705 mmHg 16%
    10:00 +33°C° 0 mm 4 mps 705 mmHg 14%
    11:00 +34°C° 0 mm 4 mps 705 mmHg 13%
    12:00 +35°C° 0 mm 4 mps 704 mmHg 12%
    13:00 +37°C° 0 mm 4 mps 703 mmHg 11%
    14:00 +37°C° 0 mm 4 mps 703 mmHg 11%
    15:00 +37°C° 0 mm 3 mps 703 mmHg 11%
    16:00 +37°C° 0 mm 3 mps 702 mmHg 11%
    17:00 +36°C° 0 mm 3 mps 703 mmHg 13%
    18:00 +34°C° 0 mm 3 mps 703 mmHg 15%
    19:00 +33°C° 0 mm 3 mps 704 mmHg 16%
    20:00 +31°C° 0 mm 3 mps 704 mmHg 18%
    21:00 +31°C° 0 mm 3 mps 705 mmHg 21%
    22:00 +30°C° 0 mm 3 mps 706 mmHg 23%
    23:00 +29°C° 0 mm 3 mps 705 mmHg 25%

    Tomorrow, 19 December, Tuesday

    Time Temperature Precipitation Wind Pressure Humidity
    00:00 +28°C° 0 mm 3 mps 705 mmHg 27%
    01:00 +28°C° 0 mm 3 mps 704 mmHg 29%
    02:00 +27°C° 0 mm 3 mps 704 mmHg 31%
    03:00 +27°C° 0 mm 3 mps 704 mmHg 32%
    04:00 +26°C° 0 mm 2 mps 704 mmHg 34%
    05:00 +27°C° 0 mm 2 mps 705 mmHg 32%
    06:00 +28°C° 0 mm 2 mps 705 mmHg 29%
    07:00 +29°C° 0 mm 2 mps 706 mmHg 26%
    08:00 +31°C° 0 mm 2 mps 706 mmHg 24%
    09:00 +32°C° 0 mm 2 mps 706 mmHg 21%
    10:00 +34°C° 0 mm 2 mps 706 mmHg 18%
    11:00 +35°C° 0 mm 3 mps 705 mmHg 17%
    12:00 +36°C° 0 mm 3 mps 704 mmHg 16%
    13:00 +37°C° 0 mm 4 mps 704 mmHg 15%
    14:00 +38°C° 0 mm 3 mps 703 mmHg 15%
    15:00 +38°C° 0 mm 3 mps 703 mmHg 15%
    16:00 +38°C° 0 mm 3 mps 703 mmHg 15%
    17:00 +37°C° 0 mm 3 mps 703 mmHg 16%
    18:00 +36°C° 0 mm 3 mps 704 mmHg 17%
    19:00 +35°C° 0 mm 3 mps 704 mmHg 19%
    20:00 +34°C° 0 mm 3 mps 704 mmHg 26%
    21:00 +33°C° 0 mm 4 mps 705 mmHg 33%
    22:00 +32°C° 0 mm 5 mps 705 mmHg 39%
    23:00 +30°C° 0 mm 4 mps 705 mmHg 42%

    Day after tomorrow, 20 December, Wednesday

    Time Temperature Precipitation Wind Pressure Humidity
    00:00 +30°C° 0 mm 4 mps 704 mmHg 45%
    01:00 +29°C° 0 mm 4 mps 704 mmHg 48%
    02:00 +29°C° 0 mm 4 mps 704 mmHg 47%
    03:00 +29°C° 0 mm 3 mps 704 mmHg 46%
    04:00 +28°C° 0 mm 3 mps 703 mmHg 46%
    05:00 +29°C° 0 mm 3 mps 704 mmHg 41%
    06:00 +30°C° 0 mm 3 mps 704 mmHg 37%
    07:00 +33°C° 0 mm 3 mps 704 mmHg 32%
    08:00 +34°C° 0 mm 3 mps 704 mmHg 29%
    09:00 +35°C° 0 mm 3 mps 704 mmHg 26%
    10:00 +37°C° 0 mm 3 mps 703 mmHg 23%
    11:00 +38°C° 0 mm 3 mps 703 mmHg 21%
    12:00 +39°C° 0 mm 3 mps 702 mmHg 19%
    13:00 +41°C° 0 mm 4 mps 701 mmHg 16%
    14:00 +41°C° 0 mm 4 mps 701 mmHg 16%
    15:00 +41°C° 0 mm 4 mps 700 mmHg 16%
    16:00 +42°C° 0 mm 4 mps 700 mmHg 16%
    17:00 +40°C° 0 mm 4 mps 700 mmHg 18%
    18:00 +38°C° 0 mm 4 mps 701 mmHg 21%
    19:00 +37°C° 0 mm 5 mps 701 mmHg 23%
    20:00 +36°C° 0 mm 5 mps 701 mmHg 28%
    21:00 +35°C° 0 mm 5 mps 702 mmHg 32%
    22:00 +34°C° 0 mm 5 mps 702 mmHg 36%
    23:00 +33°C° 0 mm 4 mps 702 mmHg 39%

    21 December, Thursday

    Time Temperature Precipitation Wind Pressure Humidity
    00:00 +33°C° 0 mm 4 mps 702 mmHg 42%
    01:00 +31°C° 0 mm 3 mps 701 mmHg 45%
    02:00 +30°C° 0.1 mm 3 mps 702 mmHg 46%
    03:00 +30°C° 0.1 mm 3 mps 702 mmHg 48%
    04:00 +29°C° 0.1 mm 2 mps 702 mmHg 49%
    05:00 +30°C° 0.3 mm 4 mps 702 mmHg 49%
    06:00 +30°C° 0.3 mm 5 mps 703 mmHg 49%
    07:00 +30°C° 0.3 mm 7 mps 703 mmHg 49%
    08:00 +32°C° 0.9 mm 7 mps 703 mmHg 47%
    09:00 +33°C° 0.9 mm 7 mps 703 mmHg 45%
    10:00 +34°C° 0.9 mm 6 mps 703 mmHg 43%
    11:00 +35°C° 0.8 mm 5 mps 702 mmHg 41%
    12:00 +35°C° 0.8 mm 4 mps 702 mmHg 39%
    13:00 +36°C° 0.8 mm 4 mps 701 mmHg 36%
    14:00 +36°C° 0.3 mm 3 mps 700 mmHg 35%
    15:00 +37°C° 0.3 mm 2 mps 700 mmHg 33%
    16:00 +37°C° 0.3 mm 2 mps 699 mmHg 32%
    17:00 +36°C° 0.8 mm 2 mps 699 mmHg 33%
    18:00 +36°C° 0.8 mm 2 mps 700 mmHg 34%
    19:00 +35°C° 0.8 mm 2 mps 700 mmHg 36%
    20:00 +34°C° 0.6 mm 2 mps 700 mmHg 38%
    21:00 +34°C° 0.6 mm 2 mps 700 mmHg 40%
    22:00 +32°C° 0.6 mm 2 mps 700 mmHg 42%
    23:00 +31°C° 0.2 mm 2 mps 700 mmHg 45%

    22 December, Friday

    Time Temperature Precipitation Wind Pressure Humidity
    00:00 +31°C° 0.2 mm 2 mps 699 mmHg 48%
    01:00 +30°C° 0.2 mm 2 mps 699 mmHg 50%
    02:00 +30°C° 0.1 mm 2 mps 699 mmHg 51%
    03:00 +29°C° 0.1 mm 2 mps 699 mmHg 53%
    04:00 +29°C° 0.1 mm 1 mps 699 mmHg 54%
    05:00 +29°C° 0.3 mm 4 mps 700 mmHg 52%
    06:00 +29°C° 0.3 mm 6 mps 700 mmHg 50%
    07:00 +29°C° 0.3 mm 8 mps 701 mmHg 48%
    08:00 +31°C° 0.2 mm 8 mps 701 mmHg 44%
    09:00 +31°C° 0.2 mm 9 mps 701 mmHg 40%
    10:00 +32°C° 0.2 mm 9 mps 701 mmHg 35%
    11:00 +32°C° 0 mm 9 mps 701 mmHg 33%
    12:00 +33°C° 0 mm 9 mps 701 mmHg 30%
    13:00 +33°C° 0 mm 8 mps 701 mmHg 27%
    14:00 +33°C° 0 mm 8 mps 701 mmHg 27%
    15:00 +33°C° 0 mm 8 mps 701 mmHg 27%
    16:00 +33°C° 0 mm 8 mps 701 mmHg 27%
    17:00 +32°C° 0 mm 7 mps 701 mmHg 29%
    18:00 +30°C° 0 mm 7 mps 702 mmHg 30%
    19:00 +29°C° 0 mm 6 mps 703 mmHg 32%
    20:00 +29°C° 0 mm 6 mps 703 mmHg 32%
    21:00 +28°C° 0 mm 6 mps 704 mmHg 31%
    22:00 +28°C° 0 mm 5 mps 704 mmHg 31%
    23:00 +27°C° 0 mm 5 mps 705 mmHg 32%

    23 December, Saturday

    Time Temperature Precipitation Wind Pressure Humidity
    00:00 +26°C° 0 mm 5 mps 705 mmHg 32%
    01:00 +25°C° 0 mm 5 mps 705 mmHg 32%
    02:00 +25°C° 0 mm 5 mps 705 mmHg 33%
    03:00 +23°C° 0 mm 4 mps 705 mmHg 34%
    04:00 +22°C° 0 mm 4 mps 706 mmHg 35%
    05:00 +23°C° 0 mm 4 mps 706 mmHg 33%
    06:00 +25°C° 0 mm 4 mps 706 mmHg 30%
    07:00 +25°C° 0 mm 4 mps 707 mmHg 28%
    08:00 +26°C° 0 mm 3 mps 706 mmHg 26%
    09:00 +28°C° 0 mm 3 mps 706 mmHg 24%
    10:00 +29°C° 0 mm 3 mps 705 mmHg 22%
    11:00 +29°C° 0 mm 3 mps 705 mmHg 22%
    12:00 +30°C° 0 mm 3 mps 704 mmHg 22%
    13:00 +31°C° 0 mm 2 mps 703 mmHg 21%
    14:00 +32°C° 0 mm 2 mps 703 mmHg 21%
    15:00 +33°C° 0 mm 3 mps 702 mmHg 21%
    16:00 +34°C° 0 mm 3 mps 702 mmHg 20%
    17:00 +33°C° 0 mm 3 mps 702 mmHg 21%
    18:00 +33°C° 0 mm 3 mps 702 mmHg 22%
    19:00 +31°C° 0 mm 3 mps 703 mmHg 23%
    20:00 +30°C° 0 mm 3 mps 703 mmHg 23%
    21:00 +29°C° 0 mm 3 mps 703 mmHg 24%
    22:00 +29°C° 0 mm 3 mps 704 mmHg 25%
    23:00 +28°C° 0 mm 3 mps 703 mmHg 25%
    Show more